Tracking 29782 objects as of 13-Oct-2024
HD Live streaming from Space Station
objects crossing your sky now

STARLINK-5671

Track STARLINK-5671 now!
10-day predictions
STARLINK-5671 is classified as:


NORAD ID: 55339
Int'l Code: 2023-013J
Perigee: 565.5 km
Apogee: 567.0 km
Inclination: 43.0 °
Period: 95.8 minutes
Semi major axis: 6937 km
RCS: Unknown
Launch date: January 26, 2023
Source: United States (US)
Launch site: AIR FORCE EASTERN TEST RANGE (AFETR)
Your satellite tracking list
Your tracking list is empty




NASA's NSSDC Master Catalog

Two Line Element Set (TLE):
1 55339U 23013J   24286.19115740 -.00001627  00000-0 -10545-3 0  9990
2 55339  43.0015 210.7347 0001128 266.1436  93.9278 15.02524646 94897
Source of the keplerian elements: AFSPC